Regional Weather Roundup
Issued by NWS Boston, MA

Current Version | Previous Version | Text Only | Print | Product List | Glossary On
Versions: 1 2 3 4 5 6 7 8 9 10 11 12 13 14 15 16 17 18 19 20 21 22 23 24 25 26 27 28 29 30 31 32 33 34 35 36 37 38 39 40 41 42 43 44 45 46 47 48 49 50
254
ASUS41 KBOX 222010
RWRBOX

REGIONAL WEATHER ROUNDUP
NATIONAL WEATHER SERVICE BOSTON/NORTON MA
400 PM EDT SAT SEP 22 2018

NOTE:  "FAIR" INDICATES FEW OR NO CLOUDS BELOW 12,000 FEET WITH NO
SIGNIFICANT WEATHER AND/OR OBSTRUCTIONS TO VISIBILITY.

MAZALL-222100-
EASTERN MASSACHUSETTS

CITY           SKY/WX    TMP DP  RH WIND       PRES   REMARKS
BOSTON         PTSUNNY   69  46  43 NW13      30.13R
BEVERLY        FAIR      66  49  54 NW12      30.11S
LAWRENCE       FAIR      67  44  43 NW7       30.15R
BEDFORD        PTSUNNY   66  46  48 N7        30.12R
BLUE HILL      NOT AVBL
NORWOOD        FAIR      71  49  45 NW7       30.12R
MARSHFIELD     FAIR      70  52  52 VRB5      30.11S
PLYMOUTH       FAIR      69  48  47 N9        30.12R
TAUNTON        FAIR      70  51  51 CALM      30.11R
NEW BEDFORD    FAIR      70  51  51 N7        30.10R
$$

MAZALL-222100-
CAPE COD AND THE ISLANDS

CITY           SKY/WX    TMP DP  RH WIND       PRES   REMARKS
FALMOUTH       FAIR      68  50  52 N8G18     30.12R
HYANNIS        FAIR      69  53  56 N14       30.10R
CHATHAM        FAIR      69  50  50 VRB6      30.11R
PROVINCETOWN   FAIR      66  51  58 N10       30.12R
NANTUCKET      FAIR      69  50  50 N18       30.10R
MARTHAS VNYRD  FAIR      72  49  44 N14       30.10R
$$

MAZALL-222100-
CENTRAL AND WESTERN MASSACHUSETTS

CITY           SKY/WX    TMP DP  RH WIND       PRES   REMARKS
WORCESTER      FAIR      64  48  56 NW12      30.14R
FITCHBURG      FAIR      65  44  46 N12       30.14R
ORANGE         FAIR      66  43  43 N10       30.16R
SPRINGFIELD    PTSUNNY   67  48  50 NE8       30.13R
WESTFIELD      FAIR      69  47  45 NW12      30.14R
NORTH ADAMS    FAIR      61  47  59 W8        30.18R
PITTSFIELD     FAIR      62  46  55 NW7       30.17R
$$

RIZALL-222100-
RHODE ISLAND

CITY           SKY/WX    TMP DP  RH WIND       PRES   REMARKS
PROVIDENCE     PTSUNNY   70  51  51 CALM      30.13R
NEWPORT        FAIR      70  54  56 N9        30.11R
BLOCK ISLAND   FAIR      70  55  59 E3        30.12R
SMITHFIELD     FAIR      68  51  54 NE7       30.13R
WESTERLY       FAIR      73  56  54 N8        30.12R
$$

CTZALL-222100-
CONNECTICUT

CITY           SKY/WX    TMP DP  RH WIND       PRES   REMARKS
BRADLEY INTL   PTSUNNY   69  49  48 NW10      30.14R
HARTFORD       FAIR      69  49  48 N9        30.13R
BRIDGEPORT     FAIR      69  50  50 NW10      30.14R
DANBURY        FAIR      64  47  53 N9        30.17S
GROTON         FAIR      71  53  52 N10       30.12R
NEW HAVEN      FAIR      70  51  51 NW7       30.14R
CHESTER        FAIR      70  50  49 N8        30.14R
MERIDEN        FAIR      69  51  52 VRB6      30.14R
WILLIMANTIC    FAIR      68  48  48 N7        30.14R
OXFORD         SUNNY     64  52  63 NW9       30.16S
$$

MEZ002-015-021-024-NHZ003-005-008-011-012-014-VTZ005-008-222100-
NORTHERN NEW ENGLAND

CITY           SKY/WX    TMP DP  RH WIND       PRES   REMARKS
PORTLAND ME    PTSUNNY   64  42  44 NW9       30.11S
BANGOR ME      CLOUDY    61  37  41 NW18      30.10R
CONCORD NH     FAIR      64  41  42 NW13G23   30.14R
MANCHESTER NH  PTSUNNY   67  42  40 NW14      30.12S
NASHUA NH      FAIR      66  44  45 NW9       30.14S
PORTSMOUTH NH  PTSUNNY   68  44  41 W9        30.10S
JAFFREY NH     FAIR      64  44  48 NW7       30.15S
KEENE NH       FAIR     N/A N/A N/A N6        30.16S
BURLINGTON VT  PTSUNNY   59  37  44 NE12      30.20S
MT. WASHINGTON PTSUNNY   34  25  69 NW38G45     N/A  WCI  19
$$

NYZ052-076-222100-
EASTERN NEW YORK

CITY           SKY/WX    TMP DP  RH WIND       PRES   REMARKS
ALBANY         PTSUNNY   66  46  48 N7        30.18R
NEW YORK CITY  PTSUNNY   70  49  47 N13G22    30.14R
$$

ANZALL-222100-
MARINE OBSERVATIONS

STATION/POSITION TIME  TEMP    WIND        PRES    VSBY  WAVE
                       AIR SEA DIR/SP/G                  HT/PER
                 (UTC) (F)     (DEG/KT/KT) (MB)    (MI)  (FT/S)
BOSTON BUOY      1950   66 66  350/ 10/ 12 1019.2R         3/10
BUZZARDS BAY     1900   69      30/  7/  7 1019.6R
NANTUCKET SOUND  1950   66 71   10/ 16/ 17 1019.4R         2/ 3
MASS BAY-STELLWA 1904   65 63  340/ 12/ 14 1017.9R  1 7/8  3/11
ISLE OF SHOALS   2000   63     280/  8/  9 1019.3R
S OF BLOCK IS    1943      67                N/A           5/ 7
$$

......................KEY.........................
  SKY/WX - SKY CONDITION/PRESENT WEATHER
  TMP    - TEMPERATURE IN FAHRENHEIT
  DWPT   - DEWPOINT IN FAHRENHEIT
  RH     - RELATIVE HUMIDITY IN PERCENT
  WIND   - DIRECTION AND SPEED IN MPH
  PRES   - MEAN SEA LEVEL PRESSURE IN INCHES OF HG
  WCI    - WIND CHILL INDEX
  VSB    - VISIBILITY IN MILES
  HX     - HEAT INDEX
  TC     - TEMPERATURE IN CELSIUS
  VRB    - VARIABLE WIND DIRECTION
  N/A    - NOT AVAILABLE




USA.gov is the U.S. government's official web portal to all federal, state and local government web resources and services.